sat.trackr.live / text

‹ back to catalog

STARLINK-2101

NORAD 47381 · 2021-005AJ

PAYLOAD ACTIVE UNKNOWN

§ Identity

Operator
Country
US
Launch date
2021-01-20
Launch site
AFETR
Launch vehicle
Mass (kg)
RCS (m²)

Purposes: comms

External: N2YO · Heavens-Above · Gunter

§ Orbital elements

Epoch: 2026-05-24T23:59:09.438720Z

Period
94.01 min
Inclination
53.1599°
Eccentricity
0.0001244
Mean motion
15.31700596 rev/d
Perigee alt
469.9 km
Apogee alt
471.6 km
Semi-major
6,848.9 km
B*
3.9949e-4
RAAN
42.5035°
Arg perigee
80.8402°
Mean anomaly
279.2740°
Rev number
29,507

§ Raw data

STARLINK-21011 47381U 21005AJ  26144.99941480  .00012052  00000+0  39949-3 0  99982 47381  53.1599  42.5035 0001244  80.8402 279.2740 15.31700596295070

JSON: /api/v1/satellites/47381 · /tle

For live sub-satellite position, see the globe view (requires WebGL).

§ Visibility from observer

Set your observer location to see the next 7 days of passes ≥ 10°. The values pass through the URL so the page stays shareable.

No JS? Fill the form by hand. The geolocation button needs JavaScript.